Regional Weather Roundup
Issued by NWS

Home | Current Version | Previous Version | Text Only | Print | Product List | Glossary Off
Versions: 1 2 3 4 5 6 7 8 9 10 11 12 13 14 15 16 17 18 19 20 21 22 23 24 25 26 27 28 29 30 31 32 33 34 35 36 37 38 39 40 41 42 43 44 45 46 47 48 49 50

000
ASUS43 KLOT 250304
RWRIL

ILLINOIS REGIONAL WEATHER ROUNDUP
NATIONAL WEATHER SERVICE CHICAGO/ROMEOVILLE IL
1000 PM CDT MON JUL 24 2017

NOTE: "FAIR" INDICATES FEW OR NO CLOUDS BELOW 12,000 FEET WITH NO
SIGNIFICANT WEATHER AND/OR OBSTRUCTIONS TO VISIBILITY.

* THESE STATIONS ARE NOT UNDER NWS QUALITY CONTROL. THEY ALSO MAY NOT
  REPORT WEATHER SUCH AS PRECIPITATION OR FOG.

ILZ001-002-007-009-015-016-024-250400-
NORTHWEST ILLINOIS

CITY           SKY/WX    TMP DP  RH WIND       PRES   REMARKS
MOLINE         CLEAR     67  62  84 CALM      30.07R
STERLING*      CLEAR     64  62  93 E5        30.09R
SAVANNA*       CLEAR     63  61  94 E5        30.08R
$$

ILZ003-004-008-010-011-017-018-250400-
NORTH CENTRAL ILLINOIS

CITY           SKY/WX    TMP DP  RH WIND       PRES   REMARKS
ROCKFORD       CLEAR     67  59  75 E6        30.10S
FREEPORT*      CLEAR     62  59  90 E5        30.11S
ROCHELLE*      CLEAR     63  60  89 E5        30.11R
DE KALB*       CLEAR     62  59  88 E5        30.12R
PERU*          CLEAR    N/A N/A N/A E7        30.09R
$$

ILZ005-006-012>014-019>023-250400-
NORTHEAST ILLINOIS

CITY           SKY/WX    TMP DP  RH WIND       PRES   REMARKS
CHICAGO-OHARE  MOCLDY    68  59  73 NE7       30.11R
CHICAGO-MIDWAY PTCLDY    69  58  67 NE8       30.10R
AURORA         CLEAR     63  59  87 NE6       30.11R
LANSING*       CLEAR     66  59  78 NE5       30.11R
JOLIET*        CLEAR     67  61  81 E6        30.11R
WAUKEGAN       CLEAR     62  60  93 CALM      30.11R
DUPAGE AIRPORT CLEAR     63  60  90 E7        30.10R
WHEELING       CLEAR     66  62  87 CALM      30.12R
MORRIS*        CLEAR     64  60  87 E5        30.09R
ROMEOVILLE*    CLEAR     64  58  79 E6        30.11R
NORTHERLY ISL    N/A     67  59  75 N5          N/A
$$

LMZ740>746-250400-
SOUTHERN LAKE MICHIGAN

STATION/POSITION SKY/WX   TEMP    WIND        PRES    VSBY  WAVE
                          AIR SEA DIR/SP/G                  HT/PER
                          (F)     (DEG/KT/KT) (MB)    (MI)  (FT/S)
SOUTHERN BUOY              67 70   20/ 12/ 14 1018.6          4/ 6
WILMETTE HARBOR            68 72   30/ 10/ 14   N/A           4/ 6
HARRISON CRIB              69      30/  8/  9   N/A
BURNHAM HARBOR             67                   N/A
CALUMET HARBOR             68      10/  6/  9 1018.8R
BURNS HARBOR               70      40/ 11/ 14 1019.6R
MICHIGAN CITY              69      30/ 13/ 14   N/A
MICHIGAN CITY 6N           70 74   40/ 10/ 14   N/A           4/ 6
ST. JOSEPH                 70 73   60/ 12/ 16 1019.2R         4/ 6
$$

ILZ025>027-034>036-040-047-049-050-058-095>099-250400-
WEST-CENTRAL ILLINOIS

CITY           SKY/WX    TMP DP  RH WIND       PRES   REMARKS
QUINCY         CLEAR     72  65  78 E7        30.04R
GALESBURG*     CLEAR     63  61  93 NE3       30.08R
MACOMB*        CLEAR     65  64  96 CALM      30.08R
JACKSONVILLE*  CLEAR     70  66  86 NE5       30.05R
PITTSFIELD*    CLEAR     71  68  89 NE3       30.06R
$$

ILZ028>032-037-038-041>044-048-051>054-059>061-250400-
CENTRAL ILLINOIS

CITY           SKY/WX    TMP DP  RH WIND       PRES   REMARKS
PONTIAC        CLEAR     64  64  98 E7        30.10R
BLOOMINGTON    CLEAR     65  62  90 E7        30.09R
DECATUR        CLEAR     68  64  87 NE8       30.06R
PEORIA         CLEAR     70  64  81 E6        30.07R
LACON*         CLEAR     66  61  84 E7        30.06R
LINCOLN*       PTCLDY    70  66  86 NE7       30.06R
SPRINGFIELD    PTCLDY    74  69  85 NE6       30.05R
TAYLORVILLE    CLEAR     73  66  80 E8        30.05R
$$

ILZ033-039-045-046-055>057-062-063-250400-
EAST-CENTRAL ILLINOIS

CITY           SKY/WX    TMP DP  RH WIND       PRES   REMARKS
CHAMPAIGN      CLEAR     69  62  78 NE8       30.07R
RANTOUL*       CLEAR     69  64  83 NE7       30.08R
MATTOON        CLEAR     70  66  87 NE6       30.05R
PARIS*         CLEAR     67  65  91 NE5       30.07R
$$

ILZ079-100>102-250400-
SOUTHWEST ILLINOIS

CITY           SKY/WX    TMP DP  RH WIND       PRES   REMARKS
ALTON          CLEAR     75  72  88 CALM      30.01S
BELLEVILLE     CLEAR     77  69  77 NE6       30.02R
CAHOKIA*       CLEAR     79  67  66 NE7       30.01R HX  81
SPARTA*        PTCLDY    76  69  78 NE3       30.01R
$$

ILZ064>066-069>071-074>076-080>082-084>086-088>090-092>094-250400-
SOUTH-CENTRAL ILLINOIS

CITY           SKY/WX    TMP DP  RH WIND       PRES   REMARKS
CARBONDALE     PTCLDY    77  73  87 E6        29.99R
CAIRO*         PTCLDY    79  75  88 E7        29.97S HX  83
EFFINGHAM*     CLEAR     73  68  86 CALM      30.06R
MARION         CLEAR     81  73  78 NE3       30.01R HX  85
MT. VERNON     CLEAR     75  69  81 NE6       30.02R
CENTRALIA*     CLEAR     75  70  83 E5        30.01R
SALEM*         CLEAR     76  68  74 NE5       30.02R
METROPOLIS*    MOCLDY    78  73  83 CALM      30.00R HX  81
$$

ILZ067-068-072-073-078-083-087-091-250400-
SOUTHEAST ILLINOIS

CITY           SKY/WX    TMP DP  RH WIND       PRES   REMARKS
LAWRENCEVILLE  CLEAR     74  69  85 NE6       30.03R
FLORA*         CLEAR     76  69  78 NE3       30.03R
FAIRFIELD*     CLEAR     74  69  86 N3        30.01R
HARRISBURG*    CLEAR     78  71  79 NE6       30.01R
ROBINSON*      CLEAR     70  68  93 NE3       30.05R
CARMI*         CLEAR     72  70  95 NE3       30.01R
$$

ABBREVIATIONS USED IN REMARKS
   TC - TEMPERATURE IN CELSIUS
  WCI - WIND CHILL INDEX
   HX - HEAT INDEX
  VSB - VISIBILITY
$$




USA.gov is the U.S. government's official web portal to all federal, state and local government web resources and services.